Regional Weather Roundup
Issued by NWS

Home | Current Version | Previous Version | Graphics & Text | Print | Product List | Glossary On
Versions: 1 2 3 4 5 6 7 8 9 10 11 12 13 14 15 16 17 18 19 20 21 22 23 24 25 26 27 28 29 30 31 32 33 34 35 36 37 38 39 40 41 42 43 44 45 46 47 48 49 50
000
ASUS43 KLOT 270003
RWRIL

ILLINOIS REGIONAL WEATHER ROUNDUP
NATIONAL WEATHER SERVICE CHICAGO/ROMEOVILLE IL
700 PM CDT TUE JUL 26 2016

NOTE: "FAIR" INDICATES FEW OR NO CLOUDS BELOW 12,000 FEET WITH NO
SIGNIFICANT WEATHER AND/OR OBSTRUCTIONS TO VISIBILITY.

* THESE STATIONS ARE NOT UNDER NWS QUALITY CONTROL. THEY ALSO MAY NOT
  REPORT WEATHER SUCH AS PRECIPITATION OR FOG.

ILZ001-002-007-009-015-016-024-270100-
NORTHWEST ILLINOIS

CITY           SKY/WX    TMP DP  RH WIND       PRES   REMARKS
MOLINE         SUNNY     84  64  50 E9        30.00S HX  85
6HR MIN TEMP:  84; 6HR MAX TEMP:  88;

STERLING*      SUNNY     84  67  56 N3        30.02S HX  86
SAVANNA*       SUNNY     83  66  56 CALM      30.01S HX  85
$$

ILZ003-004-008-010-011-017-018-270100-
NORTH CENTRAL ILLINOIS

CITY           SKY/WX    TMP DP  RH WIND       PRES   REMARKS
ROCKFORD       MOSUNNY   84  63  49 S5        30.02S HX  85
6HR MIN TEMP:  80; 6HR MAX TEMP:  86;

FREEPORT*      SUNNY     82  65  56 CALM      30.04S HX  83
ROCHELLE*      SUNNY     82  67  60 CALM      30.03R HX  84
DE KALB*       SUNNY     82  64  56 N5        30.04R HX  83
$$

ILZ005-006-012>014-019>023-270100-
NORTHEAST ILLINOIS

CITY           SKY/WX    TMP DP  RH WIND       PRES   REMARKS
CHICAGO-OHARE  MOSUNNY   83  63  50 E7        30.00R HX  84
6HR MIN TEMP:  83; 6HR MAX TEMP:  88;

CHICAGO-MIDWAY MOSUNNY   84  62  47 E9        30.00R HX  85
6HR MIN TEMP:  84; 6HR MAX TEMP:  87;

AURORA         SUNNY     83  70  64 W5        30.01R HX  87
6HR MIN TEMP:  83; 6HR MAX TEMP:  88;

LANSING*       SUNNY     82  61  49 NE7       30.01R HX  82
WAUKEGAN       SUNNY     80  64  58 SE7       30.01R HX  82
6HR MIN TEMP:  79; 6HR MAX TEMP:  84;

DUPAGE AIRPORT MOSUNNY   83  65  54 W9        30.01R HX  85
6HR MIN TEMP:  83; 6HR MAX TEMP:  87;

KANKAKEE*      SUNNY     83  69  63 S3        30.02S HX  87
WHEELING       SUNNY     82  61  48 E6        30.02R HX  83
6HR MIN TEMP:  82; 6HR MAX TEMP:  86;

MORRIS*        CLOUDY    83  68  59 CALM      30.00R HX  86
NORTHERLY ISL    N/A     78  69  73 E1          N/A  HX  80
$$

LMZ740>746-270100-
SOUTHERN LAKE MICHIGAN

STATION/POSITION SKY/WX   TEMP    WIND        PRES    VSBY  WAVE
                          AIR SEA DIR/SP/G                  HT/PER
                          (F)     (DEG/KT/KT) (MB)    (MI)  (FT/S)
SOUTHERN BUOY              78 78   CALM  /  2 1015.5S         0
WILMETTE HARBOR            78 73  130/  2/  4   N/A           0
HARRISON CRIB              79      80/  5/  6   N/A
BURNHAM HARBOR             78      50/  1/  3   N/A
CALUMET HARBOR                                1015.5
BURNS HARBOR               80      60/  7/  8 1016.6S
MICHIGAN CITY              77      30/  7/  8   N/A
MICHIGAN CITY 6N           78 78   40/  6/  6   N/A           1
ST. JOSEPH                 77 77  360/  6/  8 1015.8F         1
$$

ILZ025>027-034>036-040-047-049-050-058-095>099-270100-
WEST-CENTRAL ILLINOIS

CITY           SKY/WX    TMP DP  RH WIND       PRES   REMARKS
QUINCY         SUNNY     86  66  51 N3        30.00R HX  88
GALESBURG*     PTSUNNY   84  67  56 CALM      30.02R HX  86
MACOMB*        SUNNY     83  69  63 CALM      30.03S HX  86
JACKSONVILLE*  SUNNY     83  71  66 E5        29.99S HX  88
PITTSFIELD*    SUNNY     85  71  63 CALM      30.01R HX  90
$$

ILZ028>032-037-038-041>044-048-051>054-059>061-270100-
CENTRAL ILLINOIS

CITY           SKY/WX    TMP DP  RH WIND       PRES   REMARKS
PONTIAC        MOSUNNY   81  74  80 CALM      30.02S HX  86
BLOOMINGTON    SUNNY     81  70  69 S9        30.03S HX  84
DECATUR        SUNNY     82  69  64 E6        30.01S HX  85
PEORIA         CLOUDY    85  67  54 N3        30.00S HX  87
6HR MIN TEMP:  84; 6HR MAX TEMP:  88;

LACON*         SUNNY     84  65  53 CALM      29.99S HX  86
LINCOLN*       SUNNY     83  73  72 SE5       30.00S HX  88
SPRINGFIELD    SUNNY     84  70  62 SE6       30.00S HX  88
6HR MIN TEMP:  84; 6HR MAX TEMP:  88;

TAYLORVILLE    SUNNY     82  72  71 MISG      30.00S HX  86
6HR MIN TEMP:  82; 6HR MAX TEMP:  85;

$$

ILZ033-039-045-046-055>057-062-063-270100-
EAST-CENTRAL ILLINOIS

CITY           SKY/WX    TMP DP  RH WIND       PRES   REMARKS
CHAMPAIGN      SUNNY     81  70  69 E5        30.02S HX  84
MATTOON        MOSUNNY   81  67  62 NE5       30.00S HX  83
PARIS*         SUNNY     80  69  70 CALM      30.02S HX  82
$$

ILZ079-100>102-270100-
SOUTHWEST ILLINOIS

CITY           SKY/WX    TMP DP  RH WIND       PRES   REMARKS
ALTON          PTSUNNY   82  75  78 E6        29.97F HX  89
BELLEVILLE     PTSUNNY   82  78  89 S9        29.96F HX  91
CAHOKIA*       PTSUNNY   83  74  74 VRB7      29.97S HX  89
SPARTA*        CLOUDY    77  74  90 CALM      29.99S
$$

ILZ064>066-069>071-074>076-080>082-084>086-088>090-092>094-270100-
SOUTH-CENTRAL ILLINOIS

CITY           SKY/WX    TMP DP  RH WIND       PRES   REMARKS
CARBONDALE     CLOUDY    77  73  87 N3        29.96F
6HR MIN TEMP:  75; 6HR MAX TEMP:  87; 6HR PCP:  0.09;

CAIRO*         MOSUNNY   77  75  95 NE5       29.95F
EFFINGHAM*     MOSUNNY   82  75  78 CALM      30.01S HX  89
MARION         CLOUDY    77  77 100 N3        29.98F
MT. VERNON     PTSUNNY   79  70  73 MISG      29.97F HX  81
CENTRALIA*     PTSUNNY   81  76  83 CALM      29.98S HX  87
SALEM*         CLOUDY    84  76  76 CALM      29.98F HX  93
METROPOLIS*    CLOUDY    78  74  88 N5        29.97S HX  81
$$

ILZ067-068-072-073-078-083-087-091-270100-
SOUTHEAST ILLINOIS

CITY           SKY/WX    TMP DP  RH WIND       PRES   REMARKS
LAWRENCEVILLE  CLOUDY    84  75  74 N6        29.98F HX  92
FLORA*         PTSUNNY   84  75  74 CALM      29.99S HX  92
FAIRFIELD*     CLOUDY    77  73  88 CALM      29.96F
HARRISBURG*    CLOUDY    76  75  97 NE3       29.97F
ROBINSON*      CLOUDY    80  74  80 N5        30.00S HX  85
CARMI*         RAIN      76  75  99 CALM      29.96F
$$

ABBREVIATIONS USED IN REMARKS
   TC - TEMPERATURE IN CELSIUS
  WCI - WIND CHILL INDEX
   HX - HEAT INDEX
  VSB - VISIBILITY
$$





USA.gov is the U.S. government's official web portal to all federal, state and local government web resources and services.